Find Starlink 36356

NORAD ID: 68242 Int'l Des: 2026-054 Owner: SPXS Country: US Constellation: starlink operational
LEOCIRCULAR

Live Position

Loading 3D Globe...

About Starlink 36356

Description loading...

Upcoming Passes

Passes for default location (London). Set your location on the main map for personalized predictions.

Altitude History

Loading altitude history...

Two-Line Element Set

1 68242U 26054L 26122.16670139 -.01895893 00000-0 -41939-1 0 9997
2 68242 53.1599 48.7000 0001161 68.9012 51.9503 15.46447961 5948
Epoch: May 2, 2026 • Age: 9 hours

Current Status

Altitude 436.1 km
Velocity 7.65 km/s
Sub-Earth Point -16.63°S, 16.85°W
Launch Date Mar 17, 2026
Age 0.1 years
Type internet

Technical Details

Classification Payload
Mass 575.00 kg
Dry Mass 530.00 kg
Total Mass 575.00 kg
Length 0.30 m
Diameter 4.10 m
Span 29.00 m
Shape Box + pan
Manufacturer SPXS
Bus Type Starlink V2MO
Phase Status In Orbit
Owner/State SPXS/US

Most Searched